Location: Banska Bystrica
(48.7333°N, 19.1500°E)
Time: 11:35:19
(UTC+01:00)

ISS - Pass Details

Date: 01 February 2021
Orbit: 417 x 422 km, 51.6° (Epoch: 07 March)

Event Time Altitude Azimuth Distance (km) Brightness Sun altitude
Rises 17:16:45 0° 286° (WNW) 2,374 1.1 -6.2°
Reaches altitude 10° 17:18:53 10° 291° (WNW) 1,509 -0.1 -6.5°
Maximum altitude 17:22:14 58° 11° (N) 497 -3.5 -7.1°
Drops below altitude 10° 17:25:35 10° 92° (E) 1,508 -1.5 -7.6°
Enters shadow 17:25:47 - 93° (E) 1,592 -1.4 -7.6°
